sat.trackr.live / text

‹ back to catalog

STARLINK-35606

NORAD 66171 · 2025-240AB

PAYLOAD ACTIVE UNKNOWN

§ Identity

Operator
Country
US
Launch date
2025-10-25
Launch site
AFWTR
Launch vehicle
Mass (kg)
RCS (m²)

Purposes: comms

External: N2YO · Heavens-Above · Gunter

§ Orbital elements

Epoch: 2026-09-20T22:27:44.502336Z

Period
93.85 min
Inclination
53.1551°
Eccentricity
0.0001393
Mean motion
15.34395862 rev/d
Perigee alt
461.8 km
Apogee alt
463.7 km
Semi-major
6,840.9 km
B*
2.7199e-4
RAAN
231.4962°
Arg perigee
90.3775°
Mean anomaly
269.7387°
Rev number
5,194

§ Raw data

STARLINK-356061 66171U 25240AB  26263.93593174  .00008823  00000+0  27199-3 0  99952 66171  53.1551 231.4962 0001393  90.3775 269.7387 15.34395862 51944

JSON: /api/v1/satellites/66171 · /tle

For live sub-satellite position, see the globe view (requires WebGL).

§ Visibility from observer

Set your observer location to see the next 7 days of passes ≥ 10°. The values pass through the URL so the page stays shareable.

No JS? Fill the form by hand. The geolocation button needs JavaScript.